Location: Fort Worth, Tx
(32.7431°N, 97.3695°W)
Time: 10:50:12
(UTC-04:00)

A-11 Canister half - Pass Details

Date: 13 August 2024
Orbit: 1524 x 1684 km, 47.3° (Epoch: 13 September)

Event Time Altitude Azimuth Distance (km) Brightness Sun altitude
Rises 02:49:52 0° 271° (W) 4,915 11.6 -42.6°
Reaches altitude 10° 02:53:22 10° 279° (W) 3,938 11.1 -42.6°
Maximum altitude 03:02:42 39° 346° (NNW) 2,339 10.1 -42.3°
Drops below altitude 10° 03:12:00 10° 53° (NE) 3,926 11.5 -41.9°
Sets 03:15:30 0° 61° (ENE) 4,899 12.1 -41.8°
